Time,TemperatureF,DewpointF,PressureIn,WindDirection,WindDirectionDegrees,WindSpeedMPH,WindSpeedGustMPH,Humidity,HourlyPrecipIn,Conditions,Clouds,dailyrainin,SoftwareType,DateUTC
2013-04-13 02:24:00,24.0,15.0,-100.00,WNW,283,0.0,-999.0,69,-99.99,,,-99.99,,2013-04-13 07:24:00,
2013-04-13 02:34:00,24.0,21.0,-100.00,North,0,0.0,-999.0,87,-99.99,,,-99.99,,2013-04-13 07:34:00,
2013-04-13 02:44:00,24.0,23.0,-100.00,North,0,0.0,-999.0,94,-99.99,,,-99.99,,2013-04-13 07:44:00,
2013-04-13 02:54:00,24.0,18.0,-100.00,North,0,0.0,-999.0,78,-99.99,,,-99.99,,2013-04-13 07:54:00,
2013-04-13 03:06:00,23.0,22.0,-100.00,North,0,0.0,-999.0,96,-99.99,,,-99.99,,2013-04-13 08:06:00,
2013-04-13 03:15:00,24.0,24.0,-100.00,WNW,284,1.0,-999.0,97,-99.99,,,-99.99,,2013-04-13 08:15:00,
2013-04-13 03:25:00,24.0,24.0,-100.00,West,281,0.0,-999.0,97,-99.99,,,-99.99,,2013-04-13 08:25:00,
2013-04-13 03:34:00,24.0,24.0,-100.00,North,0,0.0,-999.0,98,-99.99,,,-99.99,,2013-04-13 08:34:00,
2013-04-13 03:45:00,24.0,24.0,-100.00,West,280,0.0,-999.0,97,-99.99,,,-99.99,,2013-04-13 08:45:00,
2013-04-13 03:53:00,23.0,23.0,-100.00,North,0,0.0,-999.0,97,-99.99,,,-99.99,,2013-04-13 08:53:00,
2013-04-13 04:05:00,23.0,22.0,-100.00,North,0,0.0,-999.0,96,-99.99,,,-99.99,,2013-04-13 09:05:00,
2013-04-13 04:14:00,23.0,23.0,-100.00,North,0,0.0,-999.0,98,-99.99,,,-99.99,,2013-04-13 09:14:00,
2013-04-13 04:24:00,23.0,23.0,-100.00,North,0,0.0,-999.0,98,-99.99,,,-99.99,,2013-04-13 09:24:00,
2013-04-13 04:36:00,23.0,23.0,-100.00,North,0,0.0,-999.0,98,-99.99,,,-99.99,,2013-04-13 09:36:00,
2013-04-13 04:49:00,23.0,22.0,-100.00,North,0,0.0,-999.0,98,-99.99,,,-99.99,,2013-04-13 09:49:00,
2013-04-13 05:05:00,23.0,22.0,-100.00,North,0,0.0,-999.0,98,-99.99,,,-99.99,,2013-04-13 10:05:00,
2013-04-13 05:15:00,22.0,22.0,-100.00,North,0,0.0,-999.0,98,-99.99,,,-99.99,,2013-04-13 10:15:00,
2013-04-13 05:24:00,23.0,21.0,-100.00,North,0,0.0,-999.0,95,-99.99,,,-99.99,,2013-04-13 10:24:00,
2013-04-13 05:36:00,22.0,22.0,-100.00,North,0,0.0,-999.0,97,-99.99,,,-99.99,,2013-04-13 10:36:00,
2013-04-13 05:46:00,22.0,22.0,-100.00,North,0,0.0,-999.0,98,-99.99,,,-99.99,,2013-04-13 10:46:00,
2013-04-13 05:53:00,23.0,22.0,-100.00,North,0,0.0,-999.0,98,-99.99,,,-99.99,,2013-04-13 10:53:00,
2013-04-13 06:14:00,23.0,-99.9,-100.00,North,0,0.0,-999.0,-999,-99.99,,,-99.99,,2013-04-13 11:14:00,
2013-04-13 06:24:00,23.0,23.0,-100.00,North,0,0.0,-999.0,99,-99.99,,,-99.99,,2013-04-13 11:24:00,
2013-04-13 06:34:00,23.0,22.0,-100.00,North,0,0.0,-999.0,99,-99.99,,,-99.99,,2013-04-13 11:34:00,
2013-04-13 06:47:00,22.0,-99.9,-100.00,North,0,0.0,-999.0,-999,-99.99,,,-99.99,,2013-04-13 11:47:00,
2013-04-13 06:53:00,22.0,22.0,-100.00,North,0,0.0,-999.0,99,-99.99,,,-99.99,,2013-04-13 11:53:00,
2013-04-13 07:08:00,22.0,22.0,-100.00,North,0,0.0,-999.0,99,-99.99,,,-99.99,,2013-04-13 12:08:00,
2013-04-13 07:15:00,22.0,22.0,-100.00,North,0,0.0,-999.0,99,-99.99,,,-99.99,,2013-04-13 12:15:00,
2013-04-13 07:24:00,22.0,22.0,-100.00,North,0,0.0,-999.0,99,-99.99,,,-99.99,,2013-04-13 12:24:00,
2013-04-13 07:35:00,22.0,21.0,-100.00,North,0,0.0,-999.0,99,-99.99,,,-99.99,,2013-04-13 12:35:00,
2013-04-13 07:47:00,22.0,22.0,-100.00,North,0,0.0,-999.0,99,-99.99,,,-99.99,,2013-04-13 12:47:00,
2013-04-13 07:54:00,24.0,24.0,-100.00,North,0,0.0,-999.0,99,-99.99,,,-99.99,,2013-04-13 12:54:00,
2013-04-13 08:05:00,24.0,24.0,-100.00,North,0,0.0,-999.0,99,-99.99,,,-99.99,,2013-04-13 13:05:00,
2013-04-13 08:15:00,25.0,25.0,-100.00,North,0,0.0,-999.0,98,-99.99,,,-99.99,,2013-04-13 13:15:00,
2013-04-13 08:27:00,26.0,26.0,-100.00,North,0,0.0,-999.0,99,-99.99,,,-99.99,,2013-04-13 13:27:00,
2013-04-13 08:34:00,27.0,27.0,-100.00,North,0,0.0,-999.0,99,-99.99,,,-99.99,,2013-04-13 13:34:00,
2013-04-13 08:47:00,27.0,27.0,-100.00,SW,217,1.0,-999.0,98,-99.99,,,-99.99,,2013-04-13 13:47:00,
2013-04-13 08:53:00,28.0,28.0,-100.00,North,0,0.0,-999.0,98,-99.99,,,-99.99,,2013-04-13 13:53:00,
2013-04-13 09:04:00,28.0,28.0,-100.00,North,0,0.0,-999.0,98,-99.99,,,-99.99,,2013-04-13 14:04:00,
2013-04-13 09:14:00,31.0,30.0,-100.00,North,0,0.0,-999.0,98,-99.99,,,-99.99,,2013-04-13 14:14:00,
2013-04-13 09:23:00,30.0,30.0,-100.00,North,0,0.0,-999.0,98,-99.99,,,-99.99,,2013-04-13 14:23:00,
2013-04-13 09:37:00,30.0,30.0,-100.00,North,0,0.0,-999.0,98,-99.99,,,-99.99,,2013-04-13 14:37:00,
2013-04-13 09:45:00,30.0,29.0,-100.00,NE,46,2.0,-999.0,96,-99.99,,,-99.99,,2013-04-13 14:45:00,
2013-04-13 09:55:00,30.0,20.0,-100.00,North,0,0.0,-999.0,66,-99.99,,,-99.99,,2013-04-13 14:55:00,
2013-04-13 10:05:00,30.0,28.0,-100.00,NE,34,3.0,-999.0,90,-99.99,,,-99.99,,2013-04-13 15:05:00,
2013-04-13 10:14:00,34.0,33.0,-100.00,North,0,0.0,-999.0,95,-99.99,,,-99.99,,2013-04-13 15:14:00,
2013-04-13 10:29:00,32.0,29.0,-100.00,North,0,0.0,-999.0,90,-99.99,,,-99.99,,2013-04-13 15:29:00,
2013-04-13 10:35:00,35.0,35.0,-100.00,North,0,0.0,-999.0,98,-99.99,,,-99.99,,2013-04-13 15:35:00,
2013-04-13 10:44:00,36.0,34.0,-100.00,North,0,0.0,-999.0,92,-99.99,,,-99.99,,2013-04-13 15:44:00,
2013-04-13 10:55:00,36.0,33.0,-100.00,North,0,0.0,-999.0,89,-99.99,,,-99.99,,2013-04-13 15:55:00,
2013-04-13 11:15:00,36.0,34.0,-100.00,North,0,0.0,-999.0,93,-99.99,,,-99.99,,2013-04-13 16:15:00,
2013-04-13 11:24:00,38.0,36.0,-100.00,North,0,0.0,-999.0,91,-99.99,,,-99.99,,2013-04-13 16:24:00,
2013-04-13 11:35:00,38.0,36.0,-100.00,North,0,0.0,-999.0,89,-99.99,,,-99.99,,2013-04-13 16:35:00,
2013-04-13 11:45:00,38.0,36.0,-100.00,North,0,0.0,-999.0,91,-99.99,,,-99.99,,2013-04-13 16:45:00,
2013-04-13 11:54:00,38.0,36.0,-100.00,North,0,0.0,-999.0,93,-99.99,,,-99.99,,2013-04-13 16:54:00,
2013-04-13 12:20:00,39.0,37.0,-100.00,North,0,0.0,-999.0,92,-99.99,,,-99.99,,2013-04-13 17:20:00,
2013-04-13 12:37:00,39.0,38.0,-100.00,North,0,0.0,-999.0,93,-99.99,,,-99.99,,2013-04-13 17:37:00,
2013-04-13 12:44:00,40.0,38.0,-100.00,North,0,0.0,-999.0,94,-99.99,,,-99.99,,2013-04-13 17:44:00,
2013-04-13 12:58:00,40.0,38.0,-100.00,South,170,0.0,-999.0,92,-99.99,,,-99.99,,2013-04-13 17:58:00,
2013-04-13 13:05:00,40.0,36.0,-100.00,North,0,0.0,-999.0,85,-99.99,,,-99.99,,2013-04-13 18:05:00,
2013-04-13 13:15:00,41.0,36.0,-100.00,North,0,0.0,-999.0,85,-99.99,,,-99.99,,2013-04-13 18:15:00,
2013-04-13 13:24:00,42.0,36.0,-100.00,ESE,116,0.0,-999.0,80,-99.99,,,-99.99,,2013-04-13 18:24:00,
2013-04-13 13:33:00,43.0,37.0,-100.00,ESE,116,2.0,-999.0,81,-99.99,,,-99.99,,2013-04-13 18:33:00,
2013-04-13 13:42:00,43.0,38.0,-100.00,SSW,193,1.0,-999.0,82,-99.99,,,-99.99,,2013-04-13 18:42:00,
2013-04-13 13:52:00,43.0,37.0,-100.00,North,0,0.0,-999.0,80,-99.99,,,-99.99,,2013-04-13 18:52:00,
2013-04-13 14:03:00,43.0,38.0,-100.00,ESE,103,2.0,-999.0,82,-99.99,,,-99.99,,2013-04-13 19:03:00,
2013-04-13 14:12:00,44.0,38.0,-100.00,SE,134,2.0,-999.0,80,-99.99,,,-99.99,,2013-04-13 19:12:00,
2013-04-13 14:22:00,45.0,37.0,-100.00,ESE,123,4.0,-999.0,75,-99.99,,,-99.99,,2013-04-13 19:22:00,
2013-04-13 14:32:00,46.0,38.0,-100.00,SE,141,0.0,-999.0,74,-99.99,,,-99.99,,2013-04-13 19:32:00,
2013-04-13 14:42:00,46.0,38.0,-100.00,SE,124,1.0,-999.0,72,-99.99,,,-99.99,,2013-04-13 19:42:00,
2013-04-13 14:52:00,46.0,41.0,-100.00,SSE,168,1.0,-999.0,80,-99.99,,,-99.99,,2013-04-13 19:52:00,
2013-04-13 15:02:00,46.0,38.0,-100.00,SE,131,2.0,-999.0,73,-99.99,,,-99.99,,2013-04-13 20:02:00,
2013-04-13 15:12:00,45.0,37.0,-100.00,SE,141,0.0,-999.0,72,-99.99,,,-99.99,,2013-04-13 20:12:00,
2013-04-13 15:22:00,46.0,37.0,-100.00,North,0,0.0,-999.0,71,-99.99,,,-99.99,,2013-04-13 20:22:00,
2013-04-13 15:32:00,46.0,38.0,-100.00,North,0,0.0,-999.0,73,-99.99,,,-99.99,,2013-04-13 20:32:00,
2013-04-13 15:42:00,45.0,37.0,-100.00,NE,56,1.0,-999.0,71,-99.99,,,-99.99,,2013-04-13 20:42:00,
2013-04-13 15:52:00,46.0,37.0,-100.00,SSE,163,4.0,-999.0,70,-99.99,,,-99.99,,2013-04-13 20:52:00,
2013-04-13 16:02:00,45.0,36.0,-100.00,ESE,109,1.0,-999.0,69,-99.99,,,-99.99,,2013-04-13 21:02:00,
2013-04-13 16:12:00,45.0,36.0,-100.00,SE,130,2.0,-999.0,70,-99.99,,,-99.99,,2013-04-13 21:12:00,
2013-04-13 16:22:00,45.0,37.0,-100.00,ESE,103,5.0,-999.0,74,-99.99,,,-99.99,,2013-04-13 21:22:00,
2013-04-13 16:33:00,45.0,38.0,-100.00,SE,127,7.0,-999.0,76,-99.99,,,-99.99,,2013-04-13 21:33:00,
2013-04-13 16:43:00,45.0,38.0,-100.00,ESE,123,17.0,-999.0,78,-99.99,,,-99.99,,2013-04-13 21:43:00,
2013-04-13 16:52:00,45.0,39.0,-100.00,ESE,116,1.0,-999.0,81,-99.99,,,-99.99,,2013-04-13 21:52:00,
2013-04-13 17:03:00,45.0,39.0,-100.00,ESE,122,16.0,-999.0,80,-99.99,,,-99.99,,2013-04-13 22:03:00,
2013-04-13 17:12:00,44.0,39.0,-100.00,SE,131,16.0,-999.0,82,-99.99,,,-99.99,,2013-04-13 22:12:00,
2013-04-13 17:22:00,44.0,39.0,-100.00,SE,127,8.0,-999.0,83,-99.99,,,-99.99,,2013-04-13 22:22:00,
2013-04-13 17:33:00,44.0,39.0,-100.00,SE,130,15.0,-999.0,84,-99.99,,,-99.99,,2013-04-13 22:33:00,
2013-04-13 17:42:00,44.0,39.0,-100.00,SE,129,5.0,-999.0,84,-99.99,,,-99.99,,2013-04-13 22:42:00,
2013-04-13 17:52:00,44.0,39.0,-100.00,SE,128,3.0,-999.0,83,-99.99,,,-99.99,,2013-04-13 22:52:00,
2013-04-13 18:02:00,44.0,39.0,-100.00,ESE,123,5.0,-999.0,82,-99.99,,,-99.99,,2013-04-13 23:02:00,
2013-04-13 18:12:00,44.0,39.0,-100.00,SE,132,7.0,-999.0,81,-99.99,,,-99.99,,2013-04-13 23:12:00,
2013-04-13 18:22:00,44.0,39.0,-100.00,SE,129,4.0,-999.0,82,-99.99,,,-99.99,,2013-04-13 23:22:00,
2013-04-13 18:32:00,44.0,39.0,-100.00,SE,125,3.0,-999.0,82,-99.99,,,-99.99,,2013-04-13 23:32:00,
2013-04-13 18:42:00,44.0,38.0,-100.00,SE,124,4.0,-999.0,79,-99.99,,,-99.99,,2013-04-13 23:42:00,
2013-04-13 18:52:00,44.0,38.0,-100.00,ESE,122,1.0,-999.0,79,-99.99,,,-99.99,,2013-04-13 23:52:00,
2013-04-13 19:02:00,44.0,38.0,-100.00,ESE,119,1.0,-999.0,79,-99.99,,,-99.99,,2013-04-14 00:02:00,
2013-04-13 19:12:00,44.0,38.0,-100.00,SE,126,2.0,-999.0,80,-99.99,,,-99.99,,2013-04-14 00:12:00,
2013-04-13 19:22:00,44.0,38.0,-100.00,SE,125,3.0,-999.0,80,-99.99,,,-99.99,,2013-04-14 00:22:00,
2013-04-13 19:32:00,44.0,38.0,-100.00,ESE,106,1.0,-999.0,80,-99.99,,,-99.99,,2013-04-14 00:32:00,
2013-04-13 19:42:00,44.0,38.0,-100.00,ESE,106,1.0,-999.0,80,-99.99,,,-99.99,,2013-04-14 00:42:00,
2013-04-13 19:52:00,44.0,38.0,-100.00,ESE,115,2.0,-999.0,80,-99.99,,,-99.99,,2013-04-14 00:52:00,
2013-04-13 20:02:00,44.0,38.0,-100.00,East,100,1.0,-999.0,81,-99.99,,,-99.99,,2013-04-14 01:02:00,
2013-04-13 20:12:00,44.0,38.0,-100.00,ESE,121,8.0,-999.0,80,-99.99,,,-99.99,,2013-04-14 01:12:00,
2013-04-13 20:22:00,44.0,38.0,-100.00,ESE,121,9.0,-999.0,82,-99.99,,,-99.99,,2013-04-14 01:22:00,
2013-04-13 20:32:00,44.0,38.0,-100.00,ESE,106,1.0,-999.0,82,-99.99,,,-99.99,,2013-04-14 01:32:00,
2013-04-13 20:42:00,43.0,38.0,-100.00,East,101,4.0,-999.0,83,-99.99,,,-99.99,,2013-04-14 01:42:00,
2013-04-13 20:52:00,43.0,39.0,-100.00,ESE,108,5.0,-999.0,84,-99.99,,,-99.99,,2013-04-14 01:52:00,
2013-04-13 21:02:00,43.0,39.0,-100.00,ESE,106,2.0,-999.0,85,-99.99,,,-99.99,,2013-04-14 02:02:00,
2013-04-13 21:12:00,43.0,39.0,-100.00,North,0,0.0,-999.0,85,-99.99,,,-99.99,,2013-04-14 02:12:00,
2013-04-13 21:22:00,43.0,38.0,-100.00,ESE,105,2.0,-999.0,85,-99.99,,,-99.99,,2013-04-14 02:22:00,
2013-04-13 21:32:00,43.0,39.0,-100.00,ESE,107,3.0,-999.0,87,-99.99,,,-99.99,,2013-04-14 02:32:00,
2013-04-13 21:42:00,43.0,39.0,-100.00,ESE,110,1.0,-999.0,88,-99.99,,,-99.99,,2013-04-14 02:42:00,
2013-04-13 21:52:00,42.0,39.0,-100.00,ESE,110,1.0,-999.0,89,-99.99,,,-99.99,,2013-04-14 02:52:00,
2013-04-13 22:02:00,42.0,39.0,-100.00,ESE,103,8.0,-999.0,89,-99.99,,,-99.99,,2013-04-14 03:02:00,
2013-04-13 22:12:00,43.0,40.0,-100.00,ESE,121,15.0,-999.0,89,-99.99,,,-99.99,,2013-04-14 03:12:00,
2013-04-13 22:22:00,42.0,40.0,-100.00,ESE,118,11.0,-999.0,90,-99.99,,,-99.99,,2013-04-14 03:22:00,
2013-04-13 22:33:00,43.0,40.0,-100.00,ESE,121,22.0,-999.0,89,-99.99,,,-99.99,,2013-04-14 03:33:00,
2013-04-13 22:42:00,42.0,40.0,-100.00,ESE,118,15.0,-999.0,90,-99.99,,,-99.99,,2013-04-14 03:42:00,
2013-04-13 22:53:00,43.0,40.0,-100.00,ESE,123,24.0,-999.0,90,-99.99,,,-99.99,,2013-04-14 03:53:00,
2013-04-13 23:02:00,42.0,40.0,-100.00,ESE,119,18.0,-999.0,90,-99.99,,,-99.99,,2013-04-14 04:02:00,
2013-04-13 23:12:00,43.0,40.0,-100.00,ESE,112,19.0,-999.0,90,-99.99,,,-99.99,,2013-04-14 04:12:00,
2013-04-13 23:23:00,43.0,40.0,-100.00,ESE,118,26.0,-999.0,90,-99.99,,,-99.99,,2013-04-14 04:23:00,
2013-04-13 23:33:00,43.0,40.0,-100.00,ESE,105,24.0,-999.0,89,-99.99,,,-99.99,,2013-04-14 04:33:00,
2013-04-13 23:43:00,43.0,40.0,-100.00,ESE,109,36.0,-999.0,88,-99.99,,,-99.99,,2013-04-14 04:43:00,
2013-04-13 23:52:00,44.0,40.0,-100.00,SE,131,34.0,-999.0,87,-99.99,,,-99.99,,2013-04-14 04:52:00,